This is the latest recevied weather packets stored in our database for station/object YF9UAG-16. If no packets are shown the sender has not sent any weather packets the latest 10 day(s).
| Time | Temp. | Humidity | Pressure | Rain* | Wind** | Luminosity | Snow |
|---|---|---|---|---|---|---|---|
| 1777689484 | 29.44° C | 69% | 1009 hPa | - | - | 0 W/m² | - |
| 1777689163 | 29.44° C | 66% | 1009 hPa | - | - | 0 W/m² | - |
| 1777688841 | 29.44° C | 67% | 1009 hPa | - | - | 0 W/m² | - |
| 1777688519 | 29.44° C | 67% | 1009 hPa | - | - | 0 W/m² | - |
| 1777688197 | 29.44° C | 67% | 1009 hPa | - | - | 0 W/m² | - |
| 1777687875 | 29.44° C | 67% | 1009 hPa | - | - | 0 W/m² | - |
| 1777687553 | 29.44° C | 67% | 1010 hPa | - | - | 0 W/m² | - |
| 1777687231 | 29.44° C | 67% | 1010 hPa | - | - | 0 W/m² | - |
| 1777686908 | 29.44° C | 67% | 1010 hPa | - | - | 0 W/m² | - |
| 1777686587 | 29.44° C | 67% | 1010 hPa | - | - | 0 W/m² | - |
| 1777686264 | 28.89° C | 67% | 1010 hPa | - | - | 0 W/m² | - |
| 1777685943 | 29.44° C | 67% | 1010 hPa | - | - | 0 W/m² | - |
| 1777685620 | 29.44° C | 67% | 1010 hPa | - | - | 0 W/m² | - |
| 1777685298 | 29.44° C | 67% | 1010 hPa | - | - | 0 W/m² | - |
| 1777684977 | 29.44° C | 67% | 1010 hPa | - | - | 0 W/m² | - |
| 1777684655 | 29.44° C | 67% | 1010 hPa | - | - | 0 W/m² | - |
| 1777684333 | 30° C | 67% | 1010 hPa | - | - | 0 W/m² | - |
| 1777684011 | 30° C | 66% | 1010 hPa | - | - | 0 W/m² | - |
| 1777683689 | 30.56° C | 65% | 1010 hPa | - | - | 0 W/m² | - |
| 1777683278 | 30° C | 68% | 1010 hPa | - | - | 0 W/m² | - |
| 1777682956 | 29.44° C | 70% | 1011 hPa | - | - | 0 W/m² | - |
| 1777682558 | 28.89° C | 72% | 1011 hPa | - | - | 0 W/m² | - |
| 1777682236 | 28.89° C | 73% | 1011 hPa | - | - | 0 W/m² | - |
| 1777681914 | 28.33° C | 75% | 1011 hPa | - | - | 0 W/m² | - |
| 1777681346 | 28.33° C | 79% | 1011 hPa | - | - | 0 W/m² | - |
* Rain since midnight (hover to see other rain measurements)
** Current wind speed in m/s (hover to see current wind gust speed)